DELTA 1 DEB, 10715

Orbit data source: Space-Track

DELTA 1 DEB, 10715 is space debris in LEO originally from a launch on Thu, 29 Jul 1976 UTC launched from the Air Force Western Test Range (AFWTR). Debris objects in space refer to the collection of defunct objects orbiting the Earth. Examples of debris include non-operational satellites, rocket bodies, and fragments generated from explosions, collisions, or faulty payload assembly.

Loading next visibility...
Identifier
10715, 1976-077AL
Orbit
LEO
Country
Flag of USUS
Related business
Manufacturer
Unknown
Mission
Spacecraft
Bus & Motor
Unknown
Mass
Unknown
Launch date (UTC)
1976-07-29 (49 years ago)
Launch vehicle
Unknown
Launch site
Air Force Western Test Range (AFWTR)
Object type
Payload
Rocket body
Debris
Shape & HBR
Unknown shape, 0.1 m
Radar Cross Section
Medium (>0.1 m² and <1 m²)

Expand to show TLE details & history
Last TLE update: 13 hours ago

TLE from 13 hours ago
0 DELTA 1 DEB
1 10715U 76077AL  25289.30981755 -.00000098  00000-0 -88035-3 0  9991
2 10715 102.5171  72.0671 0434413 254.0269 223.5658 11.63933265 93814
Epoch: 2025-10-16T07:26Z
TLE epoch observation values (Epoch: 2025-10-16T07:26:08.236Z)
Latitude
62.92708°
Longitude
141.07987°
Altitude
2,123.029 km
Speed
6.742 km/s
True Right ascension
18h 30m 44s
True Declination
62° 48' 36"
Sunlit
Object was in daylight at epoch
Visualization orbit readout
Latitude
Unknown
Longitude
Unknown
Altitude
Unknown
Speed
Unknown
Apparent Right ascension
Unknown
Apparent Declination
Unknown
Sunlit
N/A
Visualization observer readout
Local Sidereal Time
14:55:51
Azimuth
Unknown
Elevation
Unknown
Doppler factor
Unknown
Orbital elements
Apogee altitude
2,201.382 km
Perigee altitude
1,487.005 km
Semi-major axis
8,222.33 km
Eccentricity
0.04344
Inclination
102.5171°
RAAN
72.0671°
Arg. of periapsis
254.0269°
True anomaly
220.2669°
Mean anomaly
223.5658°
Eccentric anomaly
221.90345°
Mean motion
2.91106 °/min
Orbital period
123.67 mins
BSTAR
-0.00088035
Loading maneuver chart data...
Computing Atmospheric mass density...
Loading historical data...
Loading historical data...
Loading historical data...
Loading historical data...
Loading historical data...
Loading historical data...
Loading historical data...

Documentation

Showing up to 5 results
|